Regional Weather Roundup
Issued by NWS

Home | Current Version | Previous Version | Graphics & Text | Print | Product List | Glossary On
Versions: 1 2 3 4 5 6 7 8 9 10 11 12 13 14 15 16 17 18 19 20 21 22 23 24 25 26 27 28 29 30 31 32 33 34 35 36 37 38 39 40 41 42 43 44 45 46 47 48 49 50
000
ASUS45 KBOU 121710
RWRCO

WEATHER ROUNDUP FOR COLORADO
NATIONAL WEATHER SERVICE DENVER/BOULDER CO
1100 AM MDT SAT JUL 12 2014

NOTE: "FAIR" INDICATES FEW OR NO CLOUDS BELOW 12000 FEET WITH NO
SIGNIFICANT WEATHER AND/OR OBSTRUCTIONS TO VISIBILITY.

COZ001>005-013-030-031-121800-
...NORTHWEST COLORADO...

CITY           SKY/WX    TMP DP  RH WIND       PRES   REMARKS
CRAIG          CLOUDY    67  57  70 CALM      30.34S
HAYDEN         MOSUNNY   72  52  49 N5        30.36R
MEEKER         SUNNY     77  52  41 SW7       30.32S
MOUNT WERNER   NOT AVBL
STEAMBOAT SPGS PTSUNNY   68  56  64 CALM      30.37S
WALDEN         MOSUNNY   64  52  63 N6        30.46R
$$

COZ006>008-011-121800-
...WEST CENTRAL VALLEYS...

CITY           SKY/WX    TMP DP  RH WIND       PRES   REMARKS
GRAND JUNCTION SUNNY     82  50  32 SE5       30.20F
MONTROSE       SUNNY     83  47  28 SE3       30.28S
EAGLE          MOSUNNY   70  55  60 S3        30.36F
RIFLE          SUNNY     75  55  49 CALM      30.26F
DELTA          SUNNY     85  51  30 E3        30.23S
NUCLA          SUNNY     82  46  28 CALM      30.32R
$$

COZ017>023-064>068-121800-
...SOUTHWEST COLORADO...

CITY           SKY/WX    TMP DP  RH WIND       PRES   REMARKS
DURANGO        SUNNY     74  54  49 W7        30.34F
CORTEZ         SUNNY     79  52  38 CALM      30.29S
PAGOSA SPRINGS SUNNY     72  49  43 CALM      30.41S
TELLURIDE      MOSUNNY   70  46  43 W3        30.51S
WOLF CREEK PAS NOT AVBL
$$

COZ009-010-012-014-032>034-037-058>063-121800-
...CENTRAL COLORADO...

CITY           SKY/WX    TMP DP  RH WIND       PRES   REMARKS
ASPEN          MOSUNNY   71  52  50 VRB3      30.41S
BUENA VISTA    MOSUNNY   74  43  31 N5        30.40F
COPPER MTN     PTSUNNY   59  45  58 W20       30.74R
BERTHOUD PASS  FAIR      50  36  57 NW18      30.76S
COTTONWOOD PAS MOSUNNY   72  41  33 E5        30.56S
GUNNISON       MOSUNNY   66  50  55 W3        30.45S
KREMMLING      SUNNY     70  52  52 N6        30.42S
LEADVILLE      CLOUDY    65  45  48 NW8       30.55S
SALIDA         MOSUNNY   78  46  31 N3        30.44F
SUNLIGHT       MOSUNNY   63  54  72 NW5       30.66S
WILKERSON PASS MOSUNNY   59  41  51 CALM      30.71R
$$

COZ069>075-121800-
...SAN LUIS VALLEY/SANGRE DE CRISTO MOUNTAINS...

CITY           SKY/WX    TMP DP  RH WIND       PRES   REMARKS
ALAMOSA        SUNNY     74  49  41 VRB3      30.40S
LA VETA PASS   SUNNY     64  46  52 W5        30.59R
SAGUACHE       NOT AVBL
$$

COZ035-036-038>040-121800-
...NORTHERN COLORADO FRONT RANGE...

CITY           SKY/WX    TMP DP  RH WIND       PRES   REMARKS
DENVER INTL AP CLOUDY    70  61  73 N9        30.29R
DMNS CITY PARK   N/A     69  61  75 N7G16     30.28R
AURORA         NOT AVBL
FRONT RANGE AP CLOUDY    68  64  88 NE8       30.30R
ERIE MUNI ARPT CLOUDY    71  61  71 N10       30.28S
BOULDER MUN AP CLOUDY    68  61  77 N10       30.29R
CENTENNIAL     PTSUNNY   74  62  66 N17       30.29R
BROOMFIELD     CLOUDY    72  61  68 N10       30.32R
FORT COLLINS   MOSUNNY   70  63  78 NW10      30.27F
LONGMONT       PTSUNNY   73  62  68 NW7       30.29S
$$

COZ041-046-047-076>085-087-088-121800-
...PIKES PEAK/PALMER DIVIDE AND SOUTHERN FOOTHILLS...

CITY           SKY/WX    TMP DP  RH WIND       PRES   REMARKS
COLO. SPRINGS  MOSUNNY   78  54  43 VRB7      30.29S
A. F. ACADEMY  NOT AVBL
ELLICOTT       NOT AVBL
FALCON         MOSUNNY   77  51  39 S3        30.35S
FORT CARSON    NOT AVBL
LIMON          MOSUNNY   75  61  61 N14       30.26R
MONUMENT HILL  MOSUNNY   79  46  31 N5        30.34R
TRINIDAD       SUNNY     83  50  31 NE6       30.24F
$$

COZ042>045-048>051-090-091-121800-
...NORTHEAST COLORADO...

CITY           SKY/WX    TMP DP  RH WIND       PRES   REMARKS
GREELEY ARPT   NOT AVBL
AKRON          PTSUNNY   76  64  66 N15       30.22R
BURLINGTON     MOSUNNY   77  65  66 N13       30.17R
WRAY           CLOUDY    75  66  73 N14       30.16S
STERLING       MOSUNNY   77  66  69 N14       30.20R
HOLYOKE        CLOUDY    77  64  65 N13       30.17S
FORT MORGAN    PTSUNNY   79  59  50 NE9       30.22S
$$

COZ086-089-092>099-121800-
...SOUTHEAST COLORADO...

CITY           SKY/WX    TMP DP  RH WIND       PRES   REMARKS
PUEBLO         SUNNY     80  57  45 SE7       30.18S
LA JUNTA       SUNNY     86  58  38 SW7       30.15S
LAMAR          SUNNY     89  59  36 NE9       30.10S
SPRINGFIELD      N/A     86  56  35 NW7       30.15F
$$


USA.gov is the U.S. government's official web portal to all federal, state and local government web resources and services.